Regional Weather Roundup
Issued by NWS

Home | Current Version | Previous Version | Text Only | Print | Product List | Glossary On
Versions: 1 2 3 4 5 6 7 8 9 10 11 12 13 14 15 16 17 18 19 20 21 22 23 24 25 26 27 28 29 30 31 32 33 34 35 36 37 38 39 40 41 42 43 44 45 46 47 48 49 50
000
ASUS43 KFSD 151710
RWRSD

WEATHER ROUNDUP FOR SOUTH DAKOTA
NATIONAL WEATHER SERVICE SIOUX FALLS SD
1200 PM CDT MON OCT 15 2018

NOTE: "FAIR" INDICATES FEW OR NO CLOUDS BELOW 12,000 FEET WITH NO
SIGNIFICANT WEATHER AND/OR OBSTRUCTIONS TO VISIBILITY.


SDZ001>005-009-010-012>017-151800-
NORTHWEST AND NORTH CENTRAL SOUTH DAKOTA

CITY           SKY/WX    TMP DP  RH WIND       PRES   REMARKS
BUFFALO          N/A     42  19  39 W24       30.09F
FAITH            N/A     43  25  49 W16       30.15F
MOBRIDGE       SUNNY     42  26  53 SW13      30.12F
$$

SDZ012>016-024>037-041>051-057-063-072>074-151800-
SOUTHWEST AND SOUTH CENTRAL SOUTH DAKOTA

CITY           SKY/WX    TMP DP  RH WIND       PRES   REMARKS
RAPID CTY ARPT SUNNY     41  23  48 S9        30.22F
PIERRE         SUNNY     40  23  50 SW13      30.22F
CUSTER         SUNNY     31  15  52 W13G25    30.20F WCI  21
ELLSWORTH AFB  SUNNY     42  23  46 S7        30.20F
PHILIP         SUNNY     41  24  51 SW17      30.24F
PINE RIDGE     SUNNY     33  22  63 SW15      30.29F WCI  23
SPEARFISH      PTSUNNY   41  18  38 W20G28    30.19F
WINNER         FAIR      39  24  55 SW10      30.28S
$$

SDZ004>011-016>023-039-040-151800-
NORTHEAST SOUTH DAKOTA

CITY           SKY/WX    TMP DP  RH WIND       PRES   REMARKS
ABERDEEN       SUNNY     41  21  44 SW16G25   30.18F
WATERTOWN      SUNNY     37  22  54 W14       30.19F
BROOKINGS      SUNNY     39  23  52 W15       30.24S
SISSETON         N/A     41  21  44 W13       30.16F
$$

SDZ017-020-022-023-036>040-048>070-151800-
SOUTHEAST SOUTH DAKOTA

CITY           SKY/WX    TMP DP  RH WIND       PRES   REMARKS
SIOUX FALLS    SUNNY     38  26  62 W10       30.29R
HURON          SUNNY     42  20  41 W15G21    30.26F
CHAMBERLAIN    SUNNY     43  24  47 W12       30.27F
MITCHELL       SUNNY     41  22  46 W15       30.29F
YANKTON        SUNNY     38  24  57 W14       30.33S
$$

ABBREVIATIONS USED IN REMARKS
   TC - TEMPERATURE IN CELSIUS
  WCI - WIND CHILL INDEX
   HX - HEAT INDEX
  VSB - VISIBILITY




USA.gov is the U.S. government's official web portal to all federal, state and local government web resources and services.